This is the latest recevied weather packets stored in our database for station/object JH7UAX-10. If no packets are shown the sender has not sent any weather packets the latest 10 day(s).
| Time | Temp. | Humidity | Pressure | Rain* | Wind** | Luminosity | Snow |
|---|---|---|---|---|---|---|---|
| 1777510805 | 16.67° C | 46% | 1033.7 hPa | 0 mm | - | - | - |
| 1777510379 | 16.11° C | 47% | 1033.6 hPa | 0 mm | - | - | - |
| 1777509907 | 16.11° C | 46% | 1033.6 hPa | 0 mm | - | - | - |
| 1777509479 | 15.56° C | 46% | 1033.7 hPa | 0 mm | - | - | - |
| 1777509007 | 15.56° C | 47% | 1033.7 hPa | 0 mm | - | - | - |
| 1777508578 | 15.56° C | 48% | 1033.7 hPa | 0 mm | - | - | - |
| 1777508106 | 15.56° C | 48% | 1033.6 hPa | 0 mm | - | - | - |
| 1777507678 | 15.56° C | 54% | 1033.6 hPa | 0 mm | - | - | - |
| 1777506780 | 14.44° C | 58% | 1033.5 hPa | 0 mm | - | - | - |
| 1777506306 | 14.44° C | 60% | 1033.5 hPa | 0 mm | - | - | - |
| 1777505880 | 13.89° C | 61% | 1033.5 hPa | 0 mm | - | - | - |
| 1777505405 | 13.89° C | 62% | 1033.5 hPa | 0 mm | - | - | - |
| 1777504979 | 13.33° C | 64% | 1033.5 hPa | 0 mm | - | - | - |
| 1777504079 | 13.33° C | 65% | 1033.6 hPa | 0 mm | - | - | - |
| 1777503179 | 12.78° C | 66% | 1033.7 hPa | 0 mm | - | - | - |
| 1777502279 | 11.67° C | 69% | 1033.7 hPa | 0 mm | - | - | - |
| 1777501806 | 11.67° C | 70% | 1033.7 hPa | 0 mm | - | - | - |
| 1777501378 | 11.67° C | 71% | 1033.8 hPa | 0 mm | - | - | - |
| 1777500906 | 11.67° C | 73% | 1033.8 hPa | 0 mm | - | - | - |
| 1777500478 | 11.11° C | 73% | 1033.9 hPa | 0 mm | - | - | - |
| 1777499580 | 10° C | 76% | 1033.8 hPa | 0 mm | - | - | - |
| 1777498679 | 9.44° C | 78% | 1033.9 hPa | 0 mm | - | - | - |
| 1777498205 | 9.44° C | 80% | 1033.9 hPa | 0 mm | - | - | - |
| 1777497778 | 8.89° C | 82% | 1033.9 hPa | 0 mm | - | - | - |
| 1777496878 | 7.78° C | 86% | 1033.9 hPa | 0 mm | - | - | - |
* Rain latest hour (hover to see other rain measurements)
** Current wind speed in m/s (hover to see current wind gust speed)